TimeCDT,TemperatureF,Dew PointF,Humidity,Sea Level PressureIn,VisibilityMPH,Wind Direction,Wind SpeedMPH,Gust SpeedMPH,PrecipitationIn,Events,Conditions,WindDirDegrees,DateUTC
12:40 AM,59,48,59,29.72,6,SE,8.9,,,,,140,2012-10-27 05:40:00
12:45 AM,51.8,42.8,71,30.28,7.0,ENE,5.8,-,N/A,,Clear,70,2012-10-27 05:45:00
1:45 AM,51.8,42.8,71,30.28,7.0,ENE,4.6,-,N/A,,Clear,70,2012-10-27 06:45:00
2:45 AM,51.8,42.8,71,30.28,7.0,ENE,4.6,-,N/A,,Scattered Clouds,70,2012-10-27 07:45:00
3:40 AM,57,48,65,29.82,6,SE,4.5,,,,,140,2012-10-27 08:40:00
3:45 AM,50.0,42.8,76,30.28,7.0,ENE,4.6,-,N/A,,Clear,70,2012-10-27 08:45:00
4:45 AM,51.8,42.8,71,30.28,7.0,NE,10.4,-,N/A,,Clear,50,2012-10-27 09:45:00
5:45 AM,51.8,42.8,71,30.28,7.0,ENE,8.1,-,N/A,,Clear,60,2012-10-27 10:45:00
6:40 AM,53,46,71,29.85,6,East,17.9,,,,,90,2012-10-27 11:40:00
6:45 AM,50.0,42.8,76,30.24,7.0,NE,9.2,-,N/A,,Clear,50,2012-10-27 11:45:00
7:45 AM,48.2,42.8,82,30.26,7.0,ENE,9.2,-,N/A,,Clear,70,2012-10-27 12:45:00
8:45 AM,51.8,44.6,76,30.25,7.0,East,6.9,-,N/A,,Clear,90,2012-10-27 13:45:00
9:40 AM,56,47,65,29.94,16,East,17.9,,,,,90,2012-10-27 14:40:00
9:45 AM,60.8,42.8,52,30.28,7.0,ENE,11.5,-,N/A,,Clear,70,2012-10-27 14:45:00
10:45 AM,66.2,46.4,49,30.26,7.0,East,13.8,-,N/A,,Scattered Clouds,90,2012-10-27 15:45:00
11:45 AM,68.0,44.6,43,30.26,7.0,ENE,5.8,-,N/A,,Scattered Clouds,70,2012-10-27 16:45:00
12:45 PM,73,45,25,29.92,16,East,6.7,,,,,90,2012-10-27 17:45:00
12:45 PM,71.6,41.0,33,30.27,7.0,East,20.7,-,N/A,,Scattered Clouds,100,2012-10-27 17:45:00
1:45 PM,75.2,39.2,27,30.22,6.0,East,17.3,-,N/A,,Scattered Clouds,100,2012-10-27 18:45:00
2:50 PM,77.0,41.0,28,30.18,8.0,ESE,17.3,-,N/A,,Scattered Clouds,120,2012-10-27 19:50:00
3:45 PM,77.0,41.0,28,30.15,8.0,East,11.5,-,N/A,,Partly Cloudy,100,2012-10-27 20:45:00
3:48 PM,79,41,16,29.73,16,East,6.7,,,,Scattered Clouds,90,2012-10-27 20:48:00
4:45 PM,77.0,39.2,26,30.15,8.0,NE,9.2,-,N/A,,Partly Cloudy,50,2012-10-27 21:45:00
5:45 PM,75.2,41.0,29,30.15,8.0,NE,11.5,-,N/A,,Clear,40,2012-10-27 22:45:00
6:45 PM,69.8,42.8,38,30.15,8.0,NE,16.1,-,N/A,,Scattered Clouds,40,2012-10-27 23:45:00
6:55 PM,74,47,27,29.66,16,NE,11.2,,,,,50,2012-10-27 23:55:00
7:50 PM,64.4,44.6,49,30.18,7.0,NE,13.8,-,N/A,,Scattered Clouds,50,2012-10-28 00:50:00
8:45 PM,62.6,46.4,55,30.20,7.0,NE,9.2,-,N/A,,Mostly Cloudy,40,2012-10-28 01:45:00
9:45 PM,57.2,46.4,67,30.24,7.0,ESE,9.2,-,N/A,,Mostly Cloudy,110,2012-10-28 02:45:00
9:55 PM,65,48,43,29.70,12,SE,8.9,,,,Scattered Clouds,140,2012-10-28 02:55:00
10:50 PM,55.4,46.4,72,30.27,7.0,ESE,6.9,-,N/A,,Scattered Clouds,110,2012-10-28 03:50:00
10:55 PM,55.4,46.4,72,30.27,7.0,ESE,6.9,-,N/A,,Scattered Clouds,110,2012-10-28 03:55:00
11:50 PM,55.4,46.4,72,30.29,7.0,ENE,9.2,-,N/A,,Scattered Clouds,70,2012-10-28 04:50:00